{"data":{"norad_id":58214,"intl_designator":"2023-170J","name":"STARLINK-30805","alt_names":[],"object_type":"PAYLOAD","status":"ACTIVE","operator":null,"country":"US","launch_date":"2023-11-03","launch_site_code":"AFETR","launch_vehicle":null,"mission":null,"orbit_class":"UNKNOWN","rcs_meters":null,"size_class":null,"mass_kg":null,"dimensions":null,"purposes":["comms"],"wikipedia_slug":null,"has_3d_model":false,"image_url":null,"decayed_at":null,"tle_current":{"epoch":"2026-05-25T04:44:40.509312Z","epoch_age_seconds":61257,"freshness":"FRESH","line1":"1 58214U 23170J   26145.19769108  .00001288  00000+0  56321-4 0  9991","line2":"2 58214  43.0032 121.8692 0001658 273.4550  86.6112 15.27581694142008","mean_motion":15.27581694,"eccentricity":0.0001658,"inclination_deg":43.0032,"raan_deg":121.8692,"arg_perigee_deg":273.455,"mean_anomaly_deg":86.6112,"bstar":5.6321e-5,"rev_number":14200,"period_min":94.266644177264,"perigee_km":481.90643978521,"apogee_km":484.18160741264,"semimajor_km":6861.1810235989,"source":"CELESTRAK","updated_at":"2026-05-25T13:38:18.575701Z"}}}